Time,TemperatureF,DewpointF,PressureIn,WindDirection,WindDirectionDegrees,WindSpeedMPH,WindSpeedGustMPH,Humidity,HourlyPrecipIn,Conditions,Clouds,dailyrainin,SolarRadiationWatts/m^2,SoftwareType,DateUTC
2013-04-08 00:03:00,50.0,42.0,-100.00,SSW,199,1.0,3.0,75,0.00,,,0.00,0.000000,,2013-04-08 04:03:00,
2013-04-08 00:13:00,50.0,42.0,-100.00,SSW,199,1.0,3.0,75,0.00,,,0.00,0.000000,,2013-04-08 04:13:00,
2013-04-08 00:44:00,48.0,42.0,-100.00,South,179,0.0,2.0,79,0.00,,,0.00,0.000000,,2013-04-08 04:44:00,
2013-04-08 00:53:00,48.0,42.0,-100.00,South,179,0.0,2.0,79,0.00,,,0.00,0.000000,,2013-04-08 04:53:00,
2013-04-08 01:03:00,48.0,42.0,-100.00,South,179,0.0,2.0,79,0.00,,,0.00,0.000000,,2013-04-08 05:03:00,
2013-04-08 01:12:00,48.0,42.0,-100.00,South,179,0.0,2.0,79,0.00,,,0.00,0.000000,,2013-04-08 05:12:00,
2013-04-08 01:42:00,46.0,41.0,-100.00,SW,227,1.0,3.0,83,0.00,,,0.00,0.000000,,2013-04-08 05:42:00,
2013-04-08 01:53:00,46.0,41.0,-100.00,SW,227,1.0,3.0,83,0.00,,,0.00,0.000000,,2013-04-08 05:53:00,
2013-04-08 02:02:00,46.0,41.0,-100.00,SW,227,1.0,3.0,83,0.00,,,0.00,0.000000,,2013-04-08 06:02:00,
2013-04-08 02:12:00,46.0,41.0,-100.00,SW,227,1.0,3.0,83,0.00,,,0.00,0.000000,,2013-04-08 06:12:00,
2013-04-08 02:43:00,45.0,41.0,-100.00,SSW,201,1.0,2.0,86,0.00,,,0.00,0.000000,,2013-04-08 06:43:00,
2013-04-08 02:52:00,45.0,41.0,-100.00,SSW,201,1.0,2.0,86,0.00,,,0.00,0.000000,,2013-04-08 06:52:00,
2013-04-08 03:02:00,45.0,41.0,-100.00,SSW,201,1.0,2.0,86,0.00,,,0.00,0.000000,,2013-04-08 07:02:00,
2013-04-08 03:12:00,45.0,41.0,-100.00,SSW,201,1.0,2.0,86,0.00,,,0.00,0.000000,,2013-04-08 07:12:00,
2013-04-08 03:42:00,43.0,41.0,-100.00,SSW,212,1.0,1.0,91,0.00,,,-99.99,0.000000,,2013-04-08 07:42:00,
2013-04-08 03:53:00,43.0,41.0,-100.00,SSW,212,1.0,1.0,91,0.00,,,-99.99,0.000000,,2013-04-08 07:53:00,
2013-04-08 04:02:00,43.0,41.0,-100.00,SSW,212,1.0,1.0,91,0.00,,,-99.99,0.000000,,2013-04-08 08:02:00,
2013-04-08 04:12:00,43.0,41.0,-100.00,SSW,212,1.0,1.0,91,0.00,,,-99.99,0.000000,,2013-04-08 08:12:00,
2013-04-08 04:43:00,42.0,40.0,-100.00,NE,39,1.0,3.0,94,0.00,,,0.00,0.000000,,2013-04-08 08:43:00,
2013-04-08 04:52:00,42.0,40.0,-100.00,NE,39,1.0,3.0,94,0.00,,,0.00,0.000000,,2013-04-08 08:52:00,
2013-04-08 05:03:00,42.0,40.0,-100.00,NE,39,1.0,3.0,94,0.00,,,0.00,0.000000,,2013-04-08 09:03:00,
2013-04-08 05:12:00,42.0,40.0,-100.00,NE,39,1.0,3.0,94,0.00,,,0.00,0.000000,,2013-04-08 09:12:00,
2013-04-08 05:43:00,43.0,42.0,-100.00,South,171,0.0,1.0,97,0.00,,,0.00,0.000000,,2013-04-08 09:43:00,
2013-04-08 05:53:00,43.0,42.0,-100.00,South,171,0.0,1.0,97,0.00,,,0.00,0.000000,,2013-04-08 09:53:00,
2013-04-08 06:03:00,43.0,42.0,-100.00,South,171,0.0,1.0,97,0.00,,,0.00,0.000000,,2013-04-08 10:03:00,
2013-04-08 06:13:00,43.0,42.0,-100.00,South,171,0.0,1.0,97,0.00,,,0.00,0.000000,,2013-04-08 10:13:00,
2013-04-08 06:43:00,43.0,41.0,-100.00,SSE,149,0.0,3.0,94,0.00,,,0.00,0.000000,,2013-04-08 10:43:00,
2013-04-08 06:53:00,43.0,41.0,-100.00,SSE,149,0.0,3.0,94,0.00,,,0.00,0.000000,,2013-04-08 10:53:00,
2013-04-08 07:03:00,43.0,41.0,-100.00,SSE,149,0.0,3.0,94,0.00,,,0.00,0.000000,,2013-04-08 11:03:00,
2013-04-08 07:12:00,43.0,41.0,-100.00,SSE,149,0.0,3.0,94,0.00,,,0.00,0.000000,,2013-04-08 11:12:00,
2013-04-08 07:43:00,41.0,40.0,-100.00,South,171,1.0,1.0,97,0.00,,,0.00,1.000000,,2013-04-08 11:43:00,
2013-04-08 07:53:00,41.0,40.0,-100.00,South,171,1.0,1.0,97,0.00,,,0.00,1.000000,,2013-04-08 11:53:00,
2013-04-08 08:03:00,41.0,40.0,-100.00,South,171,1.0,1.0,97,0.00,,,0.00,1.000000,,2013-04-08 12:03:00,
2013-04-08 08:12:00,41.0,40.0,-100.00,South,171,1.0,1.0,97,0.00,,,0.00,1.000000,,2013-04-08 12:12:00,
2013-04-08 08:43:00,43.0,42.0,-100.00,SSE,160,0.0,1.0,98,0.00,,,0.00,35.000000,,2013-04-08 12:43:00,
2013-04-08 08:53:00,43.0,42.0,-100.00,SSE,160,0.0,1.0,98,0.00,,,0.00,35.000000,,2013-04-08 12:53:00,
2013-04-08 09:03:00,43.0,42.0,-100.00,SSE,160,0.0,1.0,98,0.00,,,0.00,35.000000,,2013-04-08 13:03:00,
2013-04-08 09:12:00,43.0,42.0,-100.00,SSE,160,0.0,1.0,98,0.00,,,0.00,35.000000,,2013-04-08 13:12:00,
2013-04-08 09:43:00,46.0,44.0,-100.00,SE,146,1.0,2.0,91,0.00,,,0.00,54.000000,,2013-04-08 13:43:00,
2013-04-08 09:53:00,46.0,44.0,-100.00,SE,146,1.0,2.0,91,0.00,,,0.00,54.000000,,2013-04-08 13:53:00,
2013-04-08 10:03:00,46.0,44.0,-100.00,SE,146,1.0,2.0,91,0.00,,,0.00,54.000000,,2013-04-08 14:03:00,
2013-04-08 10:12:00,46.0,44.0,-100.00,SE,146,1.0,2.0,91,0.00,,,0.00,54.000000,,2013-04-08 14:12:00,
2013-04-08 10:33:00,59.0,48.0,-100.00,SSE,150,2.0,5.0,68,0.00,,,0.00,209.000000,,2013-04-08 14:33:00,
2013-04-08 10:43:00,59.0,48.0,-100.00,SSE,150,2.0,5.0,68,0.00,,,0.00,209.000000,,2013-04-08 14:43:00,
2013-04-08 10:52:00,59.0,48.0,-100.00,SSE,150,2.0,5.0,68,0.00,,,0.00,209.000000,,2013-04-08 14:52:00,
2013-04-08 11:02:00,59.0,48.0,-100.00,SSE,150,2.0,5.0,68,0.00,,,0.00,209.000000,,2013-04-08 15:02:00,
2013-04-08 11:12:00,59.0,48.0,-100.00,SSE,150,2.0,5.0,68,0.00,,,0.00,209.000000,,2013-04-08 15:12:00,
2013-04-08 11:35:00,71.0,45.0,-100.00,WNW,284,6.0,14.0,40,0.00,,,0.00,554.000000,,2013-04-08 15:35:00,
2013-04-08 11:43:00,71.0,45.0,-100.00,WNW,284,6.0,14.0,40,0.00,,,0.00,554.000000,,2013-04-08 15:43:00,
2013-04-08 11:53:00,71.0,45.0,-100.00,WNW,284,6.0,14.0,40,0.00,,,0.00,554.000000,,2013-04-08 15:53:00,
2013-04-08 12:03:00,71.0,45.0,-100.00,WNW,284,6.0,14.0,40,0.00,,,0.00,554.000000,,2013-04-08 16:03:00,
2013-04-08 12:13:00,71.0,45.0,-100.00,WNW,284,6.0,14.0,40,0.00,,,0.00,554.000000,,2013-04-08 16:13:00,
2013-04-08 13:45:00,71.0,43.0,-100.00,West,276,8.0,18.0,36,-99.99,,,0.00,526.000000,,2013-04-08 17:45:00,
2013-04-08 13:53:00,71.0,43.0,-100.00,West,276,8.0,18.0,36,-99.99,,,0.00,526.000000,,2013-04-08 17:53:00,
2013-04-08 14:02:00,71.0,43.0,-100.00,West,276,8.0,18.0,36,-99.99,,,0.00,526.000000,,2013-04-08 18:02:00,
2013-04-08 14:12:00,71.0,43.0,-100.00,West,276,8.0,18.0,36,-99.99,,,0.00,526.000000,,2013-04-08 18:12:00,
2013-04-08 14:42:00,73.0,44.0,-100.00,WNW,289,8.0,20.0,36,0.00,,,0.00,532.000000,,2013-04-08 18:42:00,
2013-04-08 14:53:00,73.0,44.0,-100.00,WNW,289,8.0,20.0,36,0.00,,,0.00,532.000000,,2013-04-08 18:53:00,
2013-04-08 15:03:00,73.0,44.0,-100.00,WNW,289,8.0,20.0,36,0.00,,,0.00,532.000000,,2013-04-08 19:03:00,
2013-04-08 15:12:00,73.0,44.0,-100.00,WNW,289,8.0,20.0,36,0.00,,,0.00,532.000000,,2013-04-08 19:12:00,
2013-04-08 15:43:00,75.0,45.0,-100.00,WNW,303,8.0,24.0,35,0.00,,,0.00,654.000000,,2013-04-08 19:43:00,
2013-04-08 15:53:00,75.0,45.0,-100.00,WNW,303,8.0,24.0,35,0.00,,,0.00,654.000000,,2013-04-08 19:53:00,
2013-04-08 16:02:00,75.0,45.0,-100.00,WNW,303,8.0,24.0,35,0.00,,,0.00,654.000000,,2013-04-08 20:02:00,
2013-04-08 16:12:00,75.0,45.0,-100.00,WNW,303,8.0,24.0,35,0.00,,,0.00,654.000000,,2013-04-08 20:12:00,
2013-04-08 16:43:00,76.0,41.0,-100.00,WNW,283,9.0,20.0,29,0.00,,,0.00,652.000000,,2013-04-08 20:43:00,
2013-04-08 16:52:00,76.0,41.0,-100.00,WNW,283,9.0,20.0,29,0.00,,,0.00,652.000000,,2013-04-08 20:52:00,
2013-04-08 17:02:00,76.0,41.0,-100.00,WNW,283,9.0,20.0,29,0.00,,,0.00,652.000000,,2013-04-08 21:02:00,
2013-04-08 17:12:00,76.0,41.0,-100.00,WNW,283,9.0,20.0,29,0.00,,,0.00,652.000000,,2013-04-08 21:12:00,
2013-04-08 17:43:00,77.0,41.0,-100.00,West,275,8.0,22.0,28,0.00,,,0.00,493.000000,,2013-04-08 21:43:00,
2013-04-08 17:53:00,77.0,41.0,-100.00,West,275,8.0,22.0,28,0.00,,,0.00,493.000000,,2013-04-08 21:53:00,
2013-04-08 18:03:00,77.0,41.0,-100.00,West,275,8.0,22.0,28,0.00,,,0.00,493.000000,,2013-04-08 22:03:00,
2013-04-08 18:13:00,77.0,41.0,-100.00,West,275,8.0,22.0,28,0.00,,,0.00,493.000000,,2013-04-08 22:13:00,
2013-04-08 18:44:00,75.0,42.0,-100.00,West,281,4.0,19.0,31,0.00,,,0.00,169.000000,,2013-04-08 22:44:00,
2013-04-08 18:53:00,75.0,42.0,-100.00,West,281,4.0,19.0,31,0.00,,,0.00,169.000000,,2013-04-08 22:53:00,
2013-04-08 19:03:00,75.0,42.0,-100.00,West,281,4.0,19.0,31,0.00,,,0.00,169.000000,,2013-04-08 23:03:00,
2013-04-08 19:13:00,75.0,42.0,-100.00,West,281,4.0,19.0,31,0.00,,,0.00,169.000000,,2013-04-08 23:13:00,
2013-04-08 19:43:00,70.0,43.0,-100.00,SSW,201,2.0,12.0,38,0.00,,,0.00,43.000000,,2013-04-08 23:43:00,
2013-04-08 19:52:00,70.0,43.0,-100.00,SSW,201,2.0,12.0,38,0.00,,,0.00,43.000000,,2013-04-08 23:52:00,
2013-04-08 20:02:00,70.0,43.0,-100.00,SSW,201,2.0,12.0,38,0.00,,,0.00,43.000000,,2013-04-09 00:02:00,
2013-04-08 20:13:00,70.0,43.0,-100.00,SSW,201,2.0,12.0,38,0.00,,,0.00,43.000000,,2013-04-09 00:13:00,
2013-04-08 20:42:00,64.0,47.0,-100.00,SSW,206,1.0,6.0,53,0.00,,,0.00,5.000000,,2013-04-09 00:42:00,
2013-04-08 20:52:00,64.0,47.0,-100.00,SSW,206,1.0,6.0,53,0.00,,,0.00,5.000000,,2013-04-09 00:52:00,
2013-04-08 21:03:00,64.0,47.0,-100.00,SSW,206,1.0,6.0,53,0.00,,,0.00,5.000000,,2013-04-09 01:03:00,
2013-04-08 21:12:00,64.0,47.0,-100.00,SSW,206,1.0,6.0,53,0.00,,,0.00,5.000000,,2013-04-09 01:12:00,
2013-04-08 21:34:00,60.0,48.0,-100.00,WSW,254,1.0,7.0,65,0.00,,,0.00,0.000000,,2013-04-09 01:34:00,
2013-04-08 21:42:00,60.0,48.0,-100.00,WSW,254,1.0,7.0,65,0.00,,,0.00,0.000000,,2013-04-09 01:42:00,
2013-04-08 21:53:00,60.0,48.0,-100.00,WSW,254,1.0,7.0,65,0.00,,,0.00,0.000000,,2013-04-09 01:53:00,
2013-04-08 22:02:00,60.0,48.0,-100.00,WSW,254,1.0,7.0,65,0.00,,,0.00,0.000000,,2013-04-09 02:02:00,
2013-04-08 22:13:00,60.0,48.0,-100.00,WSW,254,1.0,7.0,65,0.00,,,0.00,0.000000,,2013-04-09 02:13:00,
2013-04-08 22:44:00,57.0,48.0,-100.00,SW,232,2.0,5.0,72,0.00,,,0.00,0.000000,,2013-04-09 02:44:00,
2013-04-08 22:52:00,57.0,48.0,-100.00,SW,232,2.0,5.0,72,0.00,,,0.00,0.000000,,2013-04-09 02:52:00,
2013-04-08 23:02:00,57.0,48.0,-100.00,SW,232,2.0,5.0,72,0.00,,,0.00,0.000000,,2013-04-09 03:02:00,
2013-04-08 23:12:00,57.0,48.0,-100.00,SW,232,2.0,5.0,72,0.00,,,0.00,0.000000,,2013-04-09 03:12:00,
2013-04-08 23:43:00,54.0,47.0,-100.00,SSW,209,2.0,4.0,78,0.00,,,0.00,0.000000,,2013-04-09 03:43:00,
2013-04-08 23:53:00,54.0,47.0,-100.00,SSW,209,2.0,4.0,78,0.00,,,0.00,0.000000,,2013-04-09 03:53:00,